DO9LL-1 Weather Reports


time (UTC)temp
C
wind
direction
speed
KPH
gust
KPH
rain 1hr
cm
rain 24hr
cm
rain mn
cm
humidity
%
barometer
mb
20260831020717 16 176 0.0 1.6 0.00 0.00 0.00 84 1008.2
20260831015735 16 187 0.0 1.6 0.00 0.00 0.00 84 1008.1
20260831014732 16 188 0.0 3.2 0.00 0.00 0.00 83 1008.2
20260831013729 17 148 0.0 1.6 0.00 0.00 0.00 83 1008.4
20260831012726 17 152 1.6 4.8 0.00 0.00 0.00 82 1008.5
20260831011723 17 148 1.6 4.8 0.00 0.00 0.00 82 1008.5
20260831010720 17 186 1.6 3.2 0.00 0.00 0.00 83 1008.8
20260831005717 17 131 0.0 3.2 0.00 0.00 0.00 83 1008.8
20260831004734 17 155 1.6 3.2 0.00 0.00 0.00 83 1008.9
20260831003732 17 161 0.0 1.6 0.00 0.00 0.00 83 1009.0
20260831002728 17 170 1.6 3.2 0.00 0.00 0.00 83 1009.2
20260831001725 17 162 1.6 3.2 0.00 0.00 0.00 82 1009.2
20260831000722 17 149 1.6 3.2 0.00 0.00 0.00 82 1009.2
20260830235720 17 148 0.0 1.6 0.00 0.00 0.00 81 1009.0
20260830234717 17 160 0.0 1.6 0.00 0.00 0.00 81 1009.1
20260830233734 17 157 1.6 3.2 0.00 0.00 0.00 81 1009.2
20260830232736 17 140 0.0 1.6 0.00 0.00 0.00 81 1009.2
20260830231728 17 165 1.6 3.2 0.00 0.00 0.00 81 1009.3
20260830230725 17 152 1.6 3.2 0.00 0.00 0.00 81 1009.4
20260830225722 17 0.0 0.0 0.00 0.00 0.00 81 1009.4
20260830224719 17 161 0.0 1.6 0.00 0.00 0.00 81 1009.6
20260830223716 17 172 1.6 6.4 0.00 0.00 0.00 82 1009.6
20260830222738 16 170 1.6 3.2 0.00 0.00 0.00 83 1009.8
20260830221731 16 126 0.0 3.2 0.00 0.00 0.00 83 1009.9
20260830220728 16 0.0 0.0 0.00 0.00 0.00 83 1010.0
20260830215725 16 0.0 0.0 0.00 0.00 0.00 84 1010.1
20260830214722 16 0.0 0.0 0.00 0.00 0.00 84 1010.1
20260830213719 16 0.0 0.0 0.00 0.00 0.00 84 1010.0
20260830212716 17 0.0 0.0 0.00 0.00 0.00 83 1010.1
20260830211733 17 101 0.0 1.6 0.00 0.00 0.00 83 1010.2
20260830210731 17 0.0 0.0 0.00 0.00 0.00 84 1010.2
20260830205727 17 190 0.0 1.6 0.00 0.00 0.00 84 1010.3
20260830204725 17 0.0 0.0 0.00 0.00 0.00 85 1010.4
20260830203722 17 115 0.0 1.6 0.00 0.00 0.00 86 1010.4
20260830202719 17 134 0.0 1.6 0.00 0.00 0.00 86 1010.4
20260830201716 17 0.0 0.0 0.00 0.00 0.00 86 1010.5
20260830200733 17 0.0 0.0 0.00 0.00 0.00 86 1010.7
20260830195730 17 0.0 0.0 0.00 0.00 0.00 86 1010.5
20260830194729 17 0.0 0.0 0.00 0.00 0.00 85 1010.5
20260830193724 17 0.0 0.0 0.00 0.00 0.00 85 1010.7
20260830192721 17 0.0 0.0 0.00 0.03 0.00 85 1010.7
20260830191718 17 0.0 0.0 0.00 0.13 0.00 84 1010.8
20260830190716 17 0.0 0.0 0.00 0.18 0.00 83 1010.7
20260830185733 18 131 0.0 1.6 0.00 0.23 0.00 82 1010.7
20260830184730 18 0.0 0.0 0.00 0.25 0.00 81 1010.6
20260830183727 18 0.0 0.0 0.00 0.25 0.00 80 1010.7
20260830182724 18 119 0.0 1.6 0.00 0.28 0.00 80 1010.8
20260830181721 19 0.0 0.0 0.00 0.28 0.00 79 1010.7
20260830180718 19 167 0.0 3.2 0.00 0.28 0.00 78 1010.7
20260830175715 20 144 0.0 1.6 0.00 0.28 0.00 77 1010.8
20260830174732 20 213 0.0 1.6 0.00 0.28 0.00 77 1010.9
20260830173730 20 267 1.6 4.8 0.00 0.28 0.00 76 1010.9
20260830172726 20 273 1.6 4.8 0.00 0.28 0.00 75 1010.8
20260830171724 20 259 3.2 6.4 0.00 0.28 0.00 75 1010.8
20260830170721 20 255 3.2 4.8 0.00 0.28 0.00 74 1010.9
20260830165717 20 266 3.2 6.4 0.00 0.28 0.00 73 1010.8
20260830164735 20 257 3.2 6.4 0.00 0.28 0.00 73 1010.9
20260830163732 21 264 4.8 11.3 0.00 0.28 0.00 72 1010.8
20260830162729 21 244 3.2 9.7 0.00 0.28 0.00 71 1010.8
20260830161726 21 258 3.2 9.7 0.00 0.28 0.00 71 1010.9
20260830160723 21 239 4.8 16.1 0.00 0.30 0.00 71 1010.9
20260830155719 21 248 4.8 9.7 0.00 0.30 0.00 71 1010.8
20260830154716 21 250 6.4 14.5 0.00 0.33 0.00 71 1010.7
20260830153733 21 258 4.8 12.9 0.00 0.41 0.00 70 1010.7
20260830152730 21 250 4.8 12.9 0.00 0.41 0.00 70 1010.7
20260830151727 21 266 6.4 14.5 0.00 0.41 0.00 70 1010.8
20260830150724 21 264 6.4 14.5 0.00 0.41 0.00 71 1010.7
20260830145721 21 253 4.8 11.3 0.00 0.41 0.00 73 1010.8
20260830144718 21 266 6.4 14.5 0.00 0.41 0.00 70 1010.7
20260830143735 22 254 6.4 11.3 0.00 0.41 0.00 69 1010.7
20260830142737 21 254 4.8 9.7 0.00 0.41 0.00 73 1010.7
20260830141729 20 191 1.6 4.8 0.00 0.41 0.00 76 1010.7
20260830140726 20 207 1.6 6.4 0.00 0.41 0.00 76 1010.6
20260830135723 20 268 1.6 11.3 0.00 0.41 0.00 76 1010.7
20260830134720 20 244 3.2 6.4 0.00 0.41 0.00 76 1010.7
20260830133717 20 263 4.8 11.3 0.00 0.41 0.00 77 1010.7
20260830132739 20 260 6.4 11.3 0.00 0.41 0.00 78 1010.7
20260830131731 19 261 6.4 12.9 0.00 0.41 0.00 82 1010.8
20260830130728 18 251 4.8 9.7 0.00 0.41 0.00 85 1010.8
20260830125725 19 243 8.0 17.7 0.00 0.41 0.00 81 1010.7
20260830124722 20 237 3.2 6.4 0.00 0.41 0.00 81 1010.5
20260830123719 20 209 1.6 6.4 0.00 0.41 0.00 82 1010.5
20260830122716 19 251 3.2 9.7 0.00 0.41 0.00 84 1010.5
20260830121733 18 252 3.2 6.4 0.00 0.41 0.00 85 1010.3
20260830120730 18 251 4.8 11.3 0.00 0.41 0.00 86 1010.4
20260830115727 18 271 3.2 6.4 0.00 0.41 0.00 90 1010.4
20260830114724 17 276 4.8 12.9 0.00 0.41 0.00 90 1010.5
20260830113721 18 230 6.4 16.1 0.00 0.41 0.00 87 1010.5
20260830112718 18 246 4.8 11.3 0.00 0.41 0.00 86 1010.2
20260830111715 18 253 4.8 12.9 0.00 0.41 0.00 87 1010.1
20260830110732 18 241 3.2 9.7 0.00 0.41 0.00 90 1010.0
20260830105730 17 250 4.8 9.7 0.00 0.41 0.00 89 1010.1
20260830104727 18 268 4.8 12.9 0.00 0.41 0.00 86 1010.0
20260830103724 18 262 6.4 14.5 0.00 0.41 0.00 85 1009.9
20260830102721 17 255 4.8 11.3 0.00 0.41 0.00 87 1009.9
20260830101718 17 193 3.2 11.3 0.00 0.41 0.00 89 1009.8
20260830100736 17 257 4.8 12.9 0.00 0.41 0.00 89 1009.8
20260830095732 17 210 4.8 11.3 0.00 0.41 0.00 88 1009.7
20260830094729 17 269 4.8 14.5 0.00 0.41 0.00 87 1009.8
20260830093727 17 265 4.8 12.9 0.00 0.41 0.00 86 1009.7
20260830092723 17 285 6.4 14.5 0.00 0.41 0.00 85 1009.6
20260830091720 17 263 6.4 14.5 0.00 0.41 0.00 84 1009.5
20260830090718 17 260 11.3 20.9 0.00 0.41 0.00 84 1009.3
20260830085735 18 297 6.4 14.5 0.00 0.41 0.00 84 1009.2
20260830084732 17 235 6.4 17.7 0.00 0.41 0.00 84 1009.0
20260830083729 17 253 6.4 12.9 0.00 0.41 0.00 84 1009.0
20260830082726 17 245 6.4 16.1 0.00 0.41 0.00 85 1008.7
20260830081724 17 253 6.4 14.5 0.00 0.41 0.00 85 1008.7
20260830080720 17 265 6.4 16.1 0.00 0.41 0.00 85 1008.7
20260830075717 17 254 6.4 14.5 0.00 0.41 0.00 85 1008.5
20260830074735 17 250 4.8 16.1 0.00 0.41 0.00 86 1008.4
20260830073732 17 260 6.4 12.9 0.00 0.41 0.00 87 1008.4
20260830072729 17 263 6.4 14.5 0.00 0.41 0.00 88 1008.2
20260830071726 17 238 6.4 14.5 0.00 0.41 0.00 87 1008.1
20260830070723 17 274 6.4 12.9 0.00 0.41 0.00 86 1008.0
20260830065720 17 270 6.4 14.5 0.00 0.41 0.00 85 1007.8
20260830064717 17 244 6.4 16.1 0.00 0.41 0.00 85 1007.7
20260830063734 17 231 6.4 14.5 0.00 0.41 0.00 85 1007.6
20260830062736 17 260 6.4 14.5 0.00 0.41 0.00 84 1007.5
20260830061728 17 260 6.4 14.5 0.00 0.41 0.00 85 1007.2
20260830060725 17 262 4.8 11.3 0.00 0.41 0.00 85 1007.1
20260830055722 17 203 4.8 11.3 0.00 0.41 0.00 87 1007.2
20260830054719 16 242 4.8 12.9 0.00 0.41 0.00 89 1007.0
20260830053716 16 255 4.8 11.3 0.00 0.41 0.00 88 1007.0
20260830052739 17 261 4.8 11.3 0.00 0.41 0.00 85 1007.0
20260830051731 17 227 4.8 12.9 0.00 0.41 0.00 83 1006.8
20260830050728 17 261 6.4 16.1 0.00 0.41 0.00 83 1006.8
20260830045725 17 263 4.8 11.3 0.00 0.41 0.00 83 1006.7
20260830044723 17 240 6.4 14.5 0.00 0.41 0.00 83 1006.6
20260830043719 17 258 8.0 16.1 0.00 0.41 0.00 83 1006.5
20260830042722 17 257 8.0 22.5 0.00 0.41 0.00 83 1006.3
20260830041734 17 259 6.4 14.5 0.00 0.41 0.00 83 1006.4
20260830040731 17 254 8.0 17.7 0.00 0.41 0.00 82 1006.3
20260830035730 17 272 6.4 12.9 0.00 0.41 0.00 82 1006.2
20260830034725 17 254 8.0 17.7 0.00 0.41 0.00 82 1006.2
20260830033722 17 252 8.0 17.7 0.00 0.41 0.00 82 1006.1
20260830032719 17 271 8.0 16.1 0.00 0.41 0.00 82 1006.1
20260830031716 17 257 6.4 11.3 0.00 0.41 0.00 82 1006.0
20260830030734 18 274 6.4 12.9 0.00 0.41 0.00 82 1006.0
20260830025731 18 257 6.4 20.9 0.00 0.41 0.00 82 1006.1
20260830024728 18 246 6.4 16.1 0.00 0.41 0.00 82 1006.0
20260830023725 18 255 6.4 16.1 0.00 0.41 0.00 82 1006.0
20260830022722 18 241 6.4 22.5 0.00 0.41 0.00 82 1005.9
20260830021719 18 281 8.0 16.1 0.00 0.41 0.00 83 1005.9